owner,sensor,date,latitude,longitude,air_temperature,qcFlag 
DISL,ioos:station:DISL:MHPA:1,2017-08-01T00:00:00Z,30.6671,-87.9365,30.44,1111122 
DISL,ioos:station:DISL:MHPA:1,2017-08-01T00:30:00Z,30.6671,-87.9365,29.85,1111122 
DISL,ioos:station:DISL:MHPA:1,2017-08-01T01:00:00Z,30.6671,-87.9365,28.68,1111122 
DISL,ioos:station:DISL:MHPA:1,2017-08-01T01:30:00Z,30.6671,-87.9365,28.02,1111122 
DISL,ioos:station:DISL:MHPA:1,2017-08-01T02:00:00Z,30.6671,-87.9365,27.41,1111122 
DISL,ioos:station:DISL:MHPA:1,2017-08-01T02:30:00Z,30.6671,-87.9365,27.04,1111122 
DISL,ioos:station:DISL:MHPA:1,2017-08-01T03:00:00Z,30.6671,-87.9365,26.69,1111122 
DISL,ioos:station:DISL:MHPA:1,2017-08-01T03:30:00Z,30.6671,-87.9365,26.18,1111122 
DISL,ioos:station:DISL:MHPA:1,2017-08-01T04:00:00Z,30.6671,-87.9365,26.25,1111122 
DISL,ioos:station:DISL:MHPA:1,2017-08-01T04:30:00Z,30.6671,-87.9365,26.32,1111122 
DISL,ioos:station:DISL:MHPA:1,2017-08-01T05:00:00Z,30.6671,-87.9365,26.01,1111122 
DISL,ioos:station:DISL:MHPA:1,2017-08-01T05:30:00Z,30.6671,-87.9365,25.58,1111122 
DISL,ioos:station:DISL:MHPA:1,2017-08-01T06:00:00Z,30.6671,-87.9365,25.11,1111122 
DISL,ioos:station:DISL:MHPA:1,2017-08-01T06:30:00Z,30.6671,-87.9365,24.63,1111122 
DISL,ioos:station:DISL:MHPA:1,2017-08-01T07:00:00Z,30.6671,-87.9365,24.3,1111122 
DISL,ioos:station:DISL:MHPA:1,2017-08-01T07:30:00Z,30.6671,-87.9365,24.18,1111122 
DISL,ioos:station:DISL:MHPA:1,2017-08-01T08:00:00Z,30.6671,-87.9365,24.85,1111122 
DISL,ioos:station:DISL:MHPA:1,2017-08-01T08:30:00Z,30.6671,-87.9365,24.72,1111122 
DISL,ioos:station:DISL:MHPA:1,2017-08-01T09:00:00Z,30.6671,-87.9365,23.74,1111122 
DISL,ioos:station:DISL:MHPA:1,2017-08-01T09:30:00Z,30.6671,-87.9365,23.4,1111122 
DISL,ioos:station:DISL:MHPA:1,2017-08-01T10:00:00Z,30.6671,-87.9365,23.4,1111122 
DISL,ioos:station:DISL:MHPA:1,2017-08-01T10:30:00Z,30.6671,-87.9365,23.3,1111122 
DISL,ioos:station:DISL:MHPA:1,2017-08-01T11:00:00Z,30.6671,-87.9365,23.27,1111122 
DISL,ioos:station:DISL:MHPA:1,2017-08-01T11:30:00Z,30.6671,-87.9365,22.9,1111122 
DISL,ioos:station:DISL:MHPA:1,2017-08-01T12:00:00Z,30.6671,-87.9365,23.13,1111122 
DISL,ioos:station:DISL:MHPA:1,2017-08-01T12:30:00Z,30.6671,-87.9365,23.8,1111122 
DISL,ioos:station:DISL:MHPA:1,2017-08-01T13:00:00Z,30.6671,-87.9365,24.4,1111122 
DISL,ioos:station:DISL:MHPA:1,2017-08-01T13:30:00Z,30.6671,-87.9365,25.54,1111122 
DISL,ioos:station:DISL:MHPA:1,2017-08-01T14:00:00Z,30.6671,-87.9365,26.53,1111122 
DISL,ioos:station:DISL:MHPA:1,2017-08-01T14:30:00Z,30.6671,-87.9365,27.34,1111122 
DISL,ioos:station:DISL:MHPA:1,2017-08-01T15:00:00Z,30.6671,-87.9365,27.85,1111122 
DISL,ioos:station:DISL:MHPA:1,2017-08-01T15:30:00Z,30.6671,-87.9365,28.18,1111122 
DISL,ioos:station:DISL:MHPA:1,2017-08-01T16:00:00Z,30.6671,-87.9365,28.78,1111122 
DISL,ioos:station:DISL:MHPA:1,2017-08-01T16:30:00Z,30.6671,-87.9365,28.57,1111122 
DISL,ioos:station:DISL:MHPA:1,2017-08-01T17:00:00Z,30.6671,-87.9365,29.11,1111122 
DISL,ioos:station:DISL:MHPA:1,2017-08-01T17:30:00Z,30.6671,-87.9365,28.74,1111122 
DISL,ioos:station:DISL:MHPA:1,2017-08-01T18:00:00Z,30.6671,-87.9365,28.8,1111122 
DISL,ioos:station:DISL:MHPA:1,2017-08-01T18:30:00Z,30.6671,-87.9365,28.8,1111122 
DISL,ioos:station:DISL:MHPA:1,2017-08-01T19:00:00Z,30.6671,-87.9365,29.07,1111122 
DISL,ioos:station:DISL:MHPA:1,2017-08-01T19:30:00Z,30.6671,-87.9365,29.17,1111122 
DISL,ioos:station:DISL:MHPA:1,2017-08-01T20:00:00Z,30.6671,-87.9365,29.31,1111122 
DISL,ioos:station:DISL:MHPA:1,2017-08-01T20:30:00Z,30.6671,-87.9365,29.58,1111122 
DISL,ioos:station:DISL:MHPA:1,2017-08-01T21:00:00Z,30.6671,-87.9365,29.75,1111122 
DISL,ioos:station:DISL:MHPA:1,2017-08-01T21:30:00Z,30.6671,-87.9365,30.15,1111122 
DISL,ioos:station:DISL:MHPA:1,2017-08-01T22:00:00Z,30.6671,-87.9365,30.77,1111122 
DISL,ioos:station:DISL:MHPA:1,2017-08-01T22:30:00Z,30.6671,-87.9365,31.61,1111122 
DISL,ioos:station:DISL:MHPA:1,2017-08-01T23:00:00Z,30.6671,-87.9365,31.54,1111122 
DISL,ioos:station:DISL:MHPA:1,2017-08-01T23:30:00Z,30.6671,-87.9365,30.9,1111122 
DISL,ioos:station:DISL:MHPA:1,2017-08-02T00:00:00Z,30.6671,-87.9365,30.4,1111122 
DISL,ioos:station:DISL:MHPA:1,2017-08-02T00:30:00Z,30.6671,-87.9365,29.61,1111122 
DISL,ioos:station:DISL:MHPA:1,2017-08-02T01:00:00Z,30.6671,-87.9365,28.45,1111122 
DISL,ioos:station:DISL:MHPA:1,2017-08-02T01:30:00Z,30.6671,-87.9365,27.88,1111122 
DISL,ioos:station:DISL:MHPA:1,2017-08-02T02:00:00Z,30.6671,-87.9365,27.78,1111122 
DISL,ioos:station:DISL:MHPA:1,2017-08-02T02:30:00Z,30.6671,-87.9365,27.04,1111122 
DISL,ioos:station:DISL:MHPA:1,2017-08-02T03:00:00Z,30.6671,-87.9365,26.34,1111122 
DISL,ioos:station:DISL:MHPA:1,2017-08-02T03:30:00Z,30.6671,-87.9365,26.25,1111122 
DISL,ioos:station:DISL:MHPA:1,2017-08-02T04:00:00Z,30.6671,-87.9365,25.91,1111122 
DISL,ioos:station:DISL:MHPA:1,2017-08-02T04:30:00Z,30.6671,-87.9365,25.64,1111122 
DISL,ioos:station:DISL:MHPA:1,2017-08-02T05:00:00Z,30.6671,-87.9365,25.37,1111122 
DISL,ioos:station:DISL:MHPA:1,2017-08-02T05:30:00Z,30.6671,-87.9365,25.07,1111122 
DISL,ioos:station:DISL:MHPA:1,2017-08-02T06:00:00Z,30.6671,-87.9365,25.24,1111122 
DISL,ioos:station:DISL:MHPA:1,2017-08-02T06:30:00Z,30.6671,-87.9365,24.87,1111122 
DISL,ioos:station:DISL:MHPA:1,2017-08-02T07:00:00Z,30.6671,-87.9365,24.33,1111122 
DISL,ioos:station:DISL:MHPA:1,2017-08-02T07:30:00Z,30.6671,-87.9365,24.04,1111122 
DISL,ioos:station:DISL:MHPA:1,2017-08-02T08:00:00Z,30.6671,-87.9365,23.5,1111122 
DISL,ioos:station:DISL:MHPA:1,2017-08-02T08:30:00Z,30.6671,-87.9365,23.3,1111122 
DISL,ioos:station:DISL:MHPA:1,2017-08-02T09:00:00Z,30.6671,-87.9365,23.3,1111122 
DISL,ioos:station:DISL:MHPA:1,2017-08-02T09:30:00Z,30.6671,-87.9365,22.69,1111122 
DISL,ioos:station:DISL:MHPA:1,2017-08-02T10:00:00Z,30.6671,-87.9365,22.93,1111122 
DISL,ioos:station:DISL:MHPA:1,2017-08-02T10:30:00Z,30.6671,-87.9365,22.86,1111122 
DISL,ioos:station:DISL:MHPA:1,2017-08-02T11:00:00Z,30.6671,-87.9365,22.15,1111122 
DISL,ioos:station:DISL:MHPA:1,2017-08-02T11:30:00Z,30.6671,-87.9365,22.46,1111122 
DISL,ioos:station:DISL:MHPA:1,2017-08-02T12:00:00Z,30.6671,-87.9365,23.47,1111122 
DISL,ioos:station:DISL:MHPA:1,2017-08-02T12:30:00Z,30.6671,-87.9365,23.5,1111122 
DISL,ioos:station:DISL:MHPA:1,2017-08-02T13:00:00Z,30.6671,-87.9365,23.54,1111122 
DISL,ioos:station:DISL:MHPA:1,2017-08-02T13:30:00Z,30.6671,-87.9365,23.9,1111122 
DISL,ioos:station:DISL:MHPA:1,2017-08-02T14:00:00Z,30.6671,-87.9365,25.31,1111122 
DISL,ioos:station:DISL:MHPA:1,2017-08-02T14:30:00Z,30.6671,-87.9365,25.8,1111122 
DISL,ioos:station:DISL:MHPA:1,2017-08-02T15:00:00Z,30.6671,-87.9365,27.31,1111122 
DISL,ioos:station:DISL:MHPA:1,2017-08-02T15:30:00Z,30.6671,-87.9365,28.44,1111122 
DISL,ioos:station:DISL:MHPA:1,2017-08-02T16:00:00Z,30.6671,-87.9365,27.59,1111122 
DISL,ioos:station:DISL:MHPA:1,2017-08-02T16:30:00Z,30.6671,-87.9365,27.86,1111122 
DISL,ioos:station:DISL:MHPA:1,2017-08-02T17:00:00Z,30.6671,-87.9365,28.47,1111122 
DISL,ioos:station:DISL:MHPA:1,2017-08-02T17:30:00Z,30.6671,-87.9365,29.71,1111122 
DISL,ioos:station:DISL:MHPA:1,2017-08-02T18:00:00Z,30.6671,-87.9365,29.92,1111122 
DISL,ioos:station:DISL:MHPA:1,2017-08-02T18:30:00Z,30.6671,-87.9365,30.19,1111122 
DISL,ioos:station:DISL:MHPA:1,2017-08-02T19:00:00Z,30.6671,-87.9365,30.62,1111122 
DISL,ioos:station:DISL:MHPA:1,2017-08-02T19:30:00Z,30.6671,-87.9365,30.74,1111122 
DISL,ioos:station:DISL:MHPA:1,2017-08-02T20:00:00Z,30.6671,-87.9365,31.04,1111122 
DISL,ioos:station:DISL:MHPA:1,2017-08-02T20:30:00Z,30.6671,-87.9365,30.94,1111122 
DISL,ioos:station:DISL:MHPA:1,2017-08-02T21:00:00Z,30.6671,-87.9365,31.27,1111122 
DISL,ioos:station:DISL:MHPA:1,2017-08-02T21:30:00Z,30.6671,-87.9365,31.04,1111122 
DISL,ioos:station:DISL:MHPA:1,2017-08-02T22:00:00Z,30.6671,-87.9365,30.16,1111122 
DISL,ioos:station:DISL:MHPA:1,2017-08-02T22:30:00Z,30.6671,-87.9365,29.52,1111122 
DISL,ioos:station:DISL:MHPA:1,2017-08-02T23:00:00Z,30.6671,-87.9365,29.34,1111122 
DISL,ioos:station:DISL:MHPA:1,2017-08-02T23:30:00Z,30.6671,-87.9365,29.21,1111122 
DISL,ioos:station:DISL:MHPA:1,2017-08-03T00:00:00Z,30.6671,-87.9365,29.15,1111122 
DISL,ioos:station:DISL:MHPA:1,2017-08-03T00:30:00Z,30.6671,-87.9365,29.2,1111122 
DISL,ioos:station:DISL:MHPA:1,2017-08-03T01:00:00Z,30.6671,-87.9365,29.23,1111122 
DISL,ioos:station:DISL:MHPA:1,2017-08-03T01:30:00Z,30.6671,-87.9365,29.23,1111122 
DISL,ioos:station:DISL:MHPA:1,2017-08-03T02:00:00Z,30.6671,-87.9365,29.16,1111122 
DISL,ioos:station:DISL:MHPA:1,2017-08-03T02:30:00Z,30.6671,-87.9365,28.08,1111122 
DISL,ioos:station:DISL:MHPA:1,2017-08-03T03:00:00Z,30.6671,-87.9365,27.78,1111122 
DISL,ioos:station:DISL:MHPA:1,2017-08-03T03:30:00Z,30.6671,-87.9365,27.41,1111122 
DISL,ioos:station:DISL:MHPA:1,2017-08-03T04:00:00Z,30.6671,-87.9365,27.21,1111122 
DISL,ioos:station:DISL:MHPA:1,2017-08-03T04:30:00Z,30.6671,-87.9365,27.34,1111122 
DISL,ioos:station:DISL:MHPA:1,2017-08-03T05:00:00Z,30.6671,-87.9365,27.34,1111122 
DISL,ioos:station:DISL:MHPA:1,2017-08-03T05:30:00Z,30.6671,-87.9365,27.38,1111122 
DISL,ioos:station:DISL:MHPA:1,2017-08-03T06:00:00Z,30.6671,-87.9365,27.34,1111122 
DISL,ioos:station:DISL:MHPA:1,2017-08-03T06:30:00Z,30.6671,-87.9365,26.53,1111122 
DISL,ioos:station:DISL:MHPA:1,2017-08-03T07:00:00Z,30.6671,-87.9365,23.82,1111122 
DISL,ioos:station:DISL:MHPA:1,2017-08-03T07:30:00Z,30.6671,-87.9365,24.09,1111122 
DISL,ioos:station:DISL:MHPA:1,2017-08-03T08:00:00Z,30.6671,-87.9365,23.6,1111122 
DISL,ioos:station:DISL:MHPA:1,2017-08-03T08:30:00Z,30.6671,-87.9365,23.6,1111122 
DISL,ioos:station:DISL:MHPA:1,2017-08-03T09:00:00Z,30.6671,-87.9365,23.57,1111122 
DISL,ioos:station:DISL:MHPA:1,2017-08-03T09:30:00Z,30.6671,-87.9365,23.64,1111122 
DISL,ioos:station:DISL:MHPA:1,2017-08-03T10:00:00Z,30.6671,-87.9365,23.37,1111122 
DISL,ioos:station:DISL:MHPA:1,2017-08-03T10:30:00Z,30.6671,-87.9365,23.47,1111122 
DISL,ioos:station:DISL:MHPA:1,2017-08-03T11:00:00Z,30.6671,-87.9365,23.17,1111122 
DISL,ioos:station:DISL:MHPA:1,2017-08-03T11:30:00Z,30.6671,-87.9365,23.1,1111122 
DISL,ioos:station:DISL:MHPA:1,2017-08-03T12:00:00Z,30.6671,-87.9365,23.23,1111122 
DISL,ioos:station:DISL:MHPA:1,2017-08-03T12:30:00Z,30.6671,-87.9365,23.74,1111122 
DISL,ioos:station:DISL:MHPA:1,2017-08-03T13:00:00Z,30.6671,-87.9365,24.01,1111122 
DISL,ioos:station:DISL:MHPA:1,2017-08-03T13:30:00Z,30.6671,-87.9365,24.54,1111122 
DISL,ioos:station:DISL:MHPA:1,2017-08-03T14:00:00Z,30.6671,-87.9365,23.62,1111122 
DISL,ioos:station:DISL:MHPA:1,2017-08-03T14:30:00Z,30.6671,-87.9365,22.79,1111122 
DISL,ioos:station:DISL:MHPA:1,2017-08-03T15:00:00Z,30.6671,-87.9365,23.57,1111122 
DISL,ioos:station:DISL:MHPA:1,2017-08-03T15:30:00Z,30.6671,-87.9365,23.3,1111122 
DISL,ioos:station:DISL:MHPA:1,2017-08-03T16:00:00Z,30.6671,-87.9365,22.66,1111122 
DISL,ioos:station:DISL:MHPA:1,2017-08-03T16:30:00Z,30.6671,-87.9365,22.63,1111122 
DISL,ioos:station:DISL:MHPA:1,2017-08-03T17:00:00Z,30.6671,-87.9365,22.73,1111122 
DISL,ioos:station:DISL:MHPA:1,2017-08-03T17:30:00Z,30.6671,-87.9365,22.32,1111122 
DISL,ioos:station:DISL:MHPA:1,2017-08-03T18:00:00Z,30.6671,-87.9365,22.32,1111122 
DISL,ioos:station:DISL:MHPA:1,2017-08-03T18:30:00Z,30.6671,-87.9365,22.46,1111122 
DISL,ioos:station:DISL:MHPA:1,2017-08-03T19:00:00Z,30.6671,-87.9365,22.9,1111122 
DISL,ioos:station:DISL:MHPA:1,2017-08-03T19:30:00Z,30.6671,-87.9365,23.27,1111122 
DISL,ioos:station:DISL:MHPA:1,2017-08-03T20:00:00Z,30.6671,-87.9365,23.46,1111122 
DISL,ioos:station:DISL:MHPA:1,2017-08-03T20:30:00Z,30.6671,-87.9365,23.52,1111122 
DISL,ioos:station:DISL:MHPA:1,2017-08-03T21:00:00Z,30.6671,-87.9365,23.62,1111122 
DISL,ioos:station:DISL:MHPA:1,2017-08-03T21:30:00Z,30.6671,-87.9365,24.09,1111122 
DISL,ioos:station:DISL:MHPA:1,2017-08-03T22:00:00Z,30.6671,-87.9365,24.46,1111122 
DISL,ioos:station:DISL:MHPA:1,2017-08-03T22:30:00Z,30.6671,-87.9365,24.75,1111122 
DISL,ioos:station:DISL:MHPA:1,2017-08-03T23:00:00Z,30.6671,-87.9365,24.89,1111122 
DISL,ioos:station:DISL:MHPA:1,2017-08-03T23:30:00Z,30.6671,-87.9365,24.9,1111122 
DISL,ioos:station:DISL:MHPA:1,2017-08-04T00:00:00Z,30.6671,-87.9365,24.83,1111122 
DISL,ioos:station:DISL:MHPA:1,2017-08-04T00:30:00Z,30.6671,-87.9365,25.2,1111122 
DISL,ioos:station:DISL:MHPA:1,2017-08-04T01:00:00Z,30.6671,-87.9365,25.17,1111122 
DISL,ioos:station:DISL:MHPA:1,2017-08-04T01:30:00Z,30.6671,-87.9365,25.0,1111122 
DISL,ioos:station:DISL:MHPA:1,2017-08-04T02:00:00Z,30.6671,-87.9365,24.97,1111122 
DISL,ioos:station:DISL:MHPA:1,2017-08-04T02:30:00Z,30.6671,-87.9365,24.67,1111122 
DISL,ioos:station:DISL:MHPA:1,2017-08-04T03:00:00Z,30.6671,-87.9365,24.74,1111122 
DISL,ioos:station:DISL:MHPA:1,2017-08-04T03:30:00Z,30.6671,-87.9365,24.63,1111122 
DISL,ioos:station:DISL:MHPA:1,2017-08-04T04:00:00Z,30.6671,-87.9365,24.57,1111122 
DISL,ioos:station:DISL:MHPA:1,2017-08-04T04:30:00Z,30.6671,-87.9365,24.53,1111122 
DISL,ioos:station:DISL:MHPA:1,2017-08-04T05:00:00Z,30.6671,-87.9365,24.43,1111122 
DISL,ioos:station:DISL:MHPA:1,2017-08-04T05:30:00Z,30.6671,-87.9365,24.46,1111122 
DISL,ioos:station:DISL:MHPA:1,2017-08-04T06:00:00Z,30.6671,-87.9365,24.73,1111122 
DISL,ioos:station:DISL:MHPA:1,2017-08-04T06:30:00Z,30.6671,-87.9365,26.59,1111122 
DISL,ioos:station:DISL:MHPA:1,2017-08-04T07:00:00Z,30.6671,-87.9365,26.86,1111122 
DISL,ioos:station:DISL:MHPA:1,2017-08-04T07:30:00Z,30.6671,-87.9365,26.79,1111122 
DISL,ioos:station:DISL:MHPA:1,2017-08-04T08:00:00Z,30.6671,-87.9365,26.08,1111122 
DISL,ioos:station:DISL:MHPA:1,2017-08-04T08:30:00Z,30.6671,-87.9365,24.83,1111122 
DISL,ioos:station:DISL:MHPA:1,2017-08-04T09:00:00Z,30.6671,-87.9365,24.5,1111122 
DISL,ioos:station:DISL:MHPA:1,2017-08-04T09:30:00Z,30.6671,-87.9365,23.79,1111122 
DISL,ioos:station:DISL:MHPA:1,2017-08-04T10:00:00Z,30.6671,-87.9365,24.07,1111122 
DISL,ioos:station:DISL:MHPA:1,2017-08-04T10:30:00Z,30.6671,-87.9365,24.37,1111122 
DISL,ioos:station:DISL:MHPA:1,2017-08-04T11:00:00Z,30.6671,-87.9365,24.37,1111122 
DISL,ioos:station:DISL:MHPA:1,2017-08-04T11:30:00Z,30.6671,-87.9365,24.1,1111122 
DISL,ioos:station:DISL:MHPA:1,2017-08-04T12:00:00Z,30.6671,-87.9365,24.0,1111122 
DISL,ioos:station:DISL:MHPA:1,2017-08-04T12:30:00Z,30.6671,-87.9365,24.1,1111122 
DISL,ioos:station:DISL:MHPA:1,2017-08-04T13:00:00Z,30.6671,-87.9365,24.06,1111122 
DISL,ioos:station:DISL:MHPA:1,2017-08-04T13:30:00Z,30.6671,-87.9365,24.47,1111122 
DISL,ioos:station:DISL:MHPA:1,2017-08-04T14:00:00Z,30.6671,-87.9365,24.63,1111122 
DISL,ioos:station:DISL:MHPA:1,2017-08-04T14:30:00Z,30.6671,-87.9365,24.8,1111122 
DISL,ioos:station:DISL:MHPA:1,2017-08-04T15:00:00Z,30.6671,-87.9365,24.9,1111122 
DISL,ioos:station:DISL:MHPA:1,2017-08-04T15:30:00Z,30.6671,-87.9365,25.31,1111122 
DISL,ioos:station:DISL:MHPA:1,2017-08-04T16:00:00Z,30.6671,-87.9365,25.31,1111122 
DISL,ioos:station:DISL:MHPA:1,2017-08-04T16:30:00Z,30.6671,-87.9365,25.31,1111122 
DISL,ioos:station:DISL:MHPA:1,2017-08-04T17:00:00Z,30.6671,-87.9365,25.2,1111122 
DISL,ioos:station:DISL:MHPA:1,2017-08-04T17:30:00Z,30.6671,-87.9365,25.85,1111122 
DISL,ioos:station:DISL:MHPA:1,2017-08-04T18:00:00Z,30.6671,-87.9365,25.56,1111122 
DISL,ioos:station:DISL:MHPA:1,2017-08-04T18:30:00Z,30.6671,-87.9365,25.56,1111122 
DISL,ioos:station:DISL:MHPA:1,2017-08-04T19:00:00Z,30.6671,-87.9365,25.59,1111122 
DISL,ioos:station:DISL:MHPA:1,2017-08-04T19:30:00Z,30.6671,-87.9365,26.06,1111122 
DISL,ioos:station:DISL:MHPA:1,2017-08-04T20:00:00Z,30.6671,-87.9365,25.76,1111122 
DISL,ioos:station:DISL:MHPA:1,2017-08-04T20:30:00Z,30.6671,-87.9365,26.1,1111122 
DISL,ioos:station:DISL:MHPA:1,2017-08-04T21:00:00Z,30.6671,-87.9365,26.43,1111122 
DISL,ioos:station:DISL:MHPA:1,2017-08-04T21:30:00Z,30.6671,-87.9365,26.05,1111122 
DISL,ioos:station:DISL:MHPA:1,2017-08-04T22:00:00Z,30.6671,-87.9365,25.81,1111122 
DISL,ioos:station:DISL:MHPA:1,2017-08-04T22:30:00Z,30.6671,-87.9365,25.78,1111122 
DISL,ioos:station:DISL:MHPA:1,2017-08-04T23:00:00Z,30.6671,-87.9365,25.98,1111122 
DISL,ioos:station:DISL:MHPA:1,2017-08-04T23:30:00Z,30.6671,-87.9365,23.99,1111122 
DISL,ioos:station:DISL:MHPA:1,2017-08-05T00:00:00Z,30.6671,-87.9365,24.5,1111122 
DISL,ioos:station:DISL:MHPA:1,2017-08-05T00:30:00Z,30.6671,-87.9365,24.77,1111122 
DISL,ioos:station:DISL:MHPA:1,2017-08-05T01:00:00Z,30.6671,-87.9365,25.68,1111122 
DISL,ioos:station:DISL:MHPA:1,2017-08-05T01:30:00Z,30.6671,-87.9365,25.98,1111122 
DISL,ioos:station:DISL:MHPA:1,2017-08-05T02:00:00Z,30.6671,-87.9365,26.15,1111122 
DISL,ioos:station:DISL:MHPA:1,2017-08-05T02:30:00Z,30.6671,-87.9365,25.98,1111122 
DISL,ioos:station:DISL:MHPA:1,2017-08-05T03:00:00Z,30.6671,-87.9365,26.15,1111122 
DISL,ioos:station:DISL:MHPA:1,2017-08-05T03:30:00Z,30.6671,-87.9365,25.74,1111122 
DISL,ioos:station:DISL:MHPA:1,2017-08-05T04:00:00Z,30.6671,-87.9365,25.98,1111122 
DISL,ioos:station:DISL:MHPA:1,2017-08-05T04:30:00Z,30.6671,-87.9365,25.81,1111122 
DISL,ioos:station:DISL:MHPA:1,2017-08-05T05:00:00Z,30.6671,-87.9365,25.98,1111122 
DISL,ioos:station:DISL:MHPA:1,2017-08-05T05:30:00Z,30.6671,-87.9365,26.08,1111122 
DISL,ioos:station:DISL:MHPA:1,2017-08-05T06:00:00Z,30.6671,-87.9365,25.98,1111122 
DISL,ioos:station:DISL:MHPA:1,2017-08-05T06:30:00Z,30.6671,-87.9365,25.78,1111122 
DISL,ioos:station:DISL:MHPA:1,2017-08-05T07:00:00Z,30.6671,-87.9365,25.2,1111122 
DISL,ioos:station:DISL:MHPA:1,2017-08-05T07:30:00Z,30.6671,-87.9365,25.0,1111122 
DISL,ioos:station:DISL:MHPA:1,2017-08-05T08:00:00Z,30.6671,-87.9365,24.7,1111122 
DISL,ioos:station:DISL:MHPA:1,2017-08-05T08:30:00Z,30.6671,-87.9365,24.36,1111122 
DISL,ioos:station:DISL:MHPA:1,2017-08-05T09:00:00Z,30.6671,-87.9365,24.5,1111122 
DISL,ioos:station:DISL:MHPA:1,2017-08-05T09:30:00Z,30.6671,-87.9365,24.33,1111122 
DISL,ioos:station:DISL:MHPA:1,2017-08-05T10:00:00Z,30.6671,-87.9365,24.46,1111122 
DISL,ioos:station:DISL:MHPA:1,2017-08-05T10:30:00Z,30.6671,-87.9365,24.43,1111122 
DISL,ioos:station:DISL:MHPA:1,2017-08-05T11:00:00Z,30.6671,-87.9365,24.4,1111122 
DISL,ioos:station:DISL:MHPA:1,2017-08-05T11:30:00Z,30.6671,-87.9365,24.16,1111122 
DISL,ioos:station:DISL:MHPA:1,2017-08-05T12:00:00Z,30.6671,-87.9365,24.3,1111122 
DISL,ioos:station:DISL:MHPA:1,2017-08-05T12:30:00Z,30.6671,-87.9365,24.23,1111122 
DISL,ioos:station:DISL:MHPA:1,2017-08-05T13:00:00Z,30.6671,-87.9365,24.29,1111122 
DISL,ioos:station:DISL:MHPA:1,2017-08-05T13:30:00Z,30.6671,-87.9365,24.53,1111122 
DISL,ioos:station:DISL:MHPA:1,2017-08-05T14:00:00Z,30.6671,-87.9365,24.96,1111122 
DISL,ioos:station:DISL:MHPA:1,2017-08-05T14:30:00Z,30.6671,-87.9365,25.32,1111122 
DISL,ioos:station:DISL:MHPA:1,2017-08-05T15:00:00Z,30.6671,-87.9365,25.69,1111122 
DISL,ioos:station:DISL:MHPA:1,2017-08-05T15:30:00Z,30.6671,-87.9365,26.5,1111122 
DISL,ioos:station:DISL:MHPA:1,2017-08-05T16:00:00Z,30.6671,-87.9365,27.16,1111122 
DISL,ioos:station:DISL:MHPA:1,2017-08-05T16:30:00Z,30.6671,-87.9365,28.2,1111122 
DISL,ioos:station:DISL:MHPA:1,2017-08-05T17:00:00Z,30.6671,-87.9365,27.86,1111122 
DISL,ioos:station:DISL:MHPA:1,2017-08-05T17:30:00Z,30.6671,-87.9365,27.89,1111122 
DISL,ioos:station:DISL:MHPA:1,2017-08-05T18:00:00Z,30.6671,-87.9365,27.93,1111122 
DISL,ioos:station:DISL:MHPA:1,2017-08-05T18:30:00Z,30.6671,-87.9365,27.82,1111122 
DISL,ioos:station:DISL:MHPA:1,2017-08-05T19:00:00Z,30.6671,-87.9365,27.89,1111122 
DISL,ioos:station:DISL:MHPA:1,2017-08-05T19:30:00Z,30.6671,-87.9365,27.55,1111122 
DISL,ioos:station:DISL:MHPA:1,2017-08-05T20:00:00Z,30.6671,-87.9365,27.69,1111122 
DISL,ioos:station:DISL:MHPA:1,2017-08-05T20:30:00Z,30.6671,-87.9365,27.49,1111122 
DISL,ioos:station:DISL:MHPA:1,2017-08-05T21:00:00Z,30.6671,-87.9365,27.76,1111122 
DISL,ioos:station:DISL:MHPA:1,2017-08-05T21:30:00Z,30.6671,-87.9365,27.6,1111122 
DISL,ioos:station:DISL:MHPA:1,2017-08-05T22:00:00Z,30.6671,-87.9365,27.68,1111122 
DISL,ioos:station:DISL:MHPA:1,2017-08-05T22:30:00Z,30.6671,-87.9365,27.91,1111122 
DISL,ioos:station:DISL:MHPA:1,2017-08-05T23:00:00Z,30.6671,-87.9365,27.97,1111122 
DISL,ioos:station:DISL:MHPA:1,2017-08-05T23:30:00Z,30.6671,-87.9365,28.1,1111122 
DISL,ioos:station:DISL:MHPA:1,2017-08-06T00:00:00Z,30.6671,-87.9365,28.0,1111122 
DISL,ioos:station:DISL:MHPA:1,2017-08-06T00:30:00Z,30.6671,-87.9365,27.98,1111122 
DISL,ioos:station:DISL:MHPA:1,2017-08-06T01:00:00Z,30.6671,-87.9365,28.12,1111122 
DISL,ioos:station:DISL:MHPA:1,2017-08-06T01:30:00Z,30.6671,-87.9365,27.98,1111122 
DISL,ioos:station:DISL:MHPA:1,2017-08-06T02:00:00Z,30.6671,-87.9365,27.88,1111122 
DISL,ioos:station:DISL:MHPA:1,2017-08-06T02:30:00Z,30.6671,-87.9365,27.91,1111122 
DISL,ioos:station:DISL:MHPA:1,2017-08-06T03:00:00Z,30.6671,-87.9365,27.54,1111122 
DISL,ioos:station:DISL:MHPA:1,2017-08-06T03:30:00Z,30.6671,-87.9365,26.6,1111122 
DISL,ioos:station:DISL:MHPA:1,2017-08-06T04:00:00Z,30.6671,-87.9365,26.18,1111122 
DISL,ioos:station:DISL:MHPA:1,2017-08-06T04:30:00Z,30.6671,-87.9365,25.98,1111122 
DISL,ioos:station:DISL:MHPA:1,2017-08-06T05:00:00Z,30.6671,-87.9365,25.98,1111122 
DISL,ioos:station:DISL:MHPA:1,2017-08-06T05:30:00Z,30.6671,-87.9365,25.54,1111122 
DISL,ioos:station:DISL:MHPA:1,2017-08-06T06:00:00Z,30.6671,-87.9365,25.74,1111122 
DISL,ioos:station:DISL:MHPA:1,2017-08-06T06:30:00Z,30.6671,-87.9365,25.58,1111122 
DISL,ioos:station:DISL:MHPA:1,2017-08-06T07:00:00Z,30.6671,-87.9365,25.61,1111122 
DISL,ioos:station:DISL:MHPA:1,2017-08-06T07:30:00Z,30.6671,-87.9365,25.78,1111122 
DISL,ioos:station:DISL:MHPA:1,2017-08-06T08:00:00Z,30.6671,-87.9365,26.49,1111122 
DISL,ioos:station:DISL:MHPA:1,2017-08-06T08:30:00Z,30.6671,-87.9365,25.61,1111122 
DISL,ioos:station:DISL:MHPA:1,2017-08-06T09:00:00Z,30.6671,-87.9365,25.47,1111122 
DISL,ioos:station:DISL:MHPA:1,2017-08-06T09:30:00Z,30.6671,-87.9365,25.31,1111122 
DISL,ioos:station:DISL:MHPA:1,2017-08-06T10:00:00Z,30.6671,-87.9365,25.88,1111122 
DISL,ioos:station:DISL:MHPA:1,2017-08-06T10:30:00Z,30.6671,-87.9365,25.91,1111122 
DISL,ioos:station:DISL:MHPA:1,2017-08-06T11:00:00Z,30.6671,-87.9365,25.95,1111122 
DISL,ioos:station:DISL:MHPA:1,2017-08-06T11:30:00Z,30.6671,-87.9365,25.71,1111122 
DISL,ioos:station:DISL:MHPA:1,2017-08-06T12:00:00Z,30.6671,-87.9365,25.95,1111122 
DISL,ioos:station:DISL:MHPA:1,2017-08-06T12:30:00Z,30.6671,-87.9365,26.18,1111122 
DISL,ioos:station:DISL:MHPA:1,2017-08-06T13:00:00Z,30.6671,-87.9365,27.04,1111122 
DISL,ioos:station:DISL:MHPA:1,2017-08-06T13:30:00Z,30.6671,-87.9365,26.46,1111122 
DISL,ioos:station:DISL:MHPA:1,2017-08-06T14:00:00Z,30.6671,-87.9365,27.27,1111122 
DISL,ioos:station:DISL:MHPA:1,2017-08-06T14:30:00Z,30.6671,-87.9365,27.34,1111122 
DISL,ioos:station:DISL:MHPA:1,2017-08-06T15:00:00Z,30.6671,-87.9365,28.01,1111122 
DISL,ioos:station:DISL:MHPA:1,2017-08-06T15:30:00Z,30.6671,-87.9365,28.13,1111122 
DISL,ioos:station:DISL:MHPA:1,2017-08-06T16:00:00Z,30.6671,-87.9365,27.93,1111122 
DISL,ioos:station:DISL:MHPA:1,2017-08-06T16:30:00Z,30.6671,-87.9365,28.2,1111122 
DISL,ioos:station:DISL:MHPA:1,2017-08-06T17:00:00Z,30.6671,-87.9365,28.5,1111122 
DISL,ioos:station:DISL:MHPA:1,2017-08-06T17:30:00Z,30.6671,-87.9365,28.53,1111122 
DISL,ioos:station:DISL:MHPA:1,2017-08-06T18:00:00Z,30.6671,-87.9365,28.6,1111122 
DISL,ioos:station:DISL:MHPA:1,2017-08-06T18:30:00Z,30.6671,-87.9365,28.87,1111122 
DISL,ioos:station:DISL:MHPA:1,2017-08-06T19:00:00Z,30.6671,-87.9365,28.97,1111122 
DISL,ioos:station:DISL:MHPA:1,2017-08-06T19:30:00Z,30.6671,-87.9365,28.84,1111122 
DISL,ioos:station:DISL:MHPA:1,2017-08-06T20:00:00Z,30.6671,-87.9365,28.97,1111122 
DISL,ioos:station:DISL:MHPA:1,2017-08-06T20:30:00Z,30.6671,-87.9365,28.94,1111122 
DISL,ioos:station:DISL:MHPA:1,2017-08-06T21:00:00Z,30.6671,-87.9365,29.11,1111122 
DISL,ioos:station:DISL:MHPA:1,2017-08-06T21:30:00Z,30.6671,-87.9365,29.14,1111122 
DISL,ioos:station:DISL:MHPA:1,2017-08-06T22:00:00Z,30.6671,-87.9365,29.04,1111122 
DISL,ioos:station:DISL:MHPA:1,2017-08-06T22:30:00Z,30.6671,-87.9365,29.07,1111122 
DISL,ioos:station:DISL:MHPA:1,2017-08-06T23:00:00Z,30.6671,-87.9365,29.11,1111122 
DISL,ioos:station:DISL:MHPA:1,2017-08-06T23:30:00Z,30.6671,-87.9365,29.12,1111122 
DISL,ioos:station:DISL:MHPA:1,2017-08-07T00:00:00Z,30.6671,-87.9365,28.92,1111122 